Latest Weather Observations for Low Head

IDT60801

Issued at 12:02 pm EST Thursday 28 May 2015 (issued every 30 minutes, with the page automatically refreshed every 10 minutes)

About weather observations | Map of weather stations | Latest weather observations for TAS | Other Formats
Station Details ID: 091293 Name: LOW HEAD Lat: -41.05 Lon: 146.79 Height: 3.0 m
Data from the previous 72 hours. | See also: Recent months at Low Head
Date/Time
EST
Temp
°C
App
Temp
°C
Dew
Point
Rel
Hum
%
Delta-T
°C
Wind Press
QNH
hPa
Press
MSL
hPa
Rain
since 9 am
mm
Dir
 
Spd
km/h
Gust
km/h
Spd
kts
Gust
kts
28/12:00pm 15.2 7.9 12.7 85 1.4 NNW 43 54 23 29 1010.6 1010.6 0.0
28/11:30am 15.0 7.7 12.7 86 1.3 N 43 52 23 28 1011.2 1011.2 0.0
28/11:00am 14.9 8.0 12.8 87 1.2 N 41 48 22 26 1011.7 1011.7 0.0
28/10:30am 14.9 8.0 12.8 87 1.2 N 41 48 22 26 1012.0 1012.0 0.0
28/10:00am 14.7 8.1 12.6 87 1.1 N 39 48 21 26 1012.3 1012.3 0.0
28/09:30am 15.1 9.3 12.8 86 1.3 NNW 35 44 19 24 1012.6 1012.6 0.0
28/09:00am 15.1 9.0 13.0 87 1.2 NW 37 41 20 22 1012.9 1012.9 5.0
28/08:30am 14.7 8.5 12.7 88 1.1 NNW 37 43 20 23 1012.9 1012.9 5.0
28/08:00am 14.6 8.4 12.5 87 1.1 NW 37 46 20 25 1012.9 1012.9 5.0
28/07:30am 14.6 8.4 12.5 87 1.1 NW 37 48 20 26 1013.0 1013.0 5.0
28/07:00am 14.7 6.0 12.6 87 1.1 NW 50 61 27 33 1013.0 1013.0 5.0
28/06:36am 14.8 7.4 13.0 89 1.0 NNW 44 63 24 34 1012.5 1012.5 5.0
28/06:30am 14.7 8.3 13.1 90 0.9 NNW 39 50 21 27 1012.6 1012.6 5.0
28/06:00am 14.5 9.4 13.0 91 0.8 N 32 39 17 21 1012.5 1012.5 5.0
28/05:30am 14.4 9.6 13.0 91 0.8 NNW 30 33 16 18 1012.6 1012.6 5.0
28/05:00am 14.2 10.1 12.8 91 0.8 NW 26 32 14 17 1013.0 1013.0 5.0
28/04:30am 14.1 9.6 12.7 91 0.8 NW 28 35 15 19 1013.4 1013.4 5.0
28/04:00am 13.9 8.6 12.5 91 0.8 NW 32 35 17 19 1013.4 1013.4 5.0
28/03:30am 13.9 9.0 12.6 92 0.7 NW 30 35 16 19 1013.4 1013.4 5.0
28/03:00am 14.0 8.7 13.1 94 0.5 NW 33 41 18 22 1013.6 1013.6 5.0
28/02:30am 13.8 6.9 12.9 94 0.5 NW 41 48 22 26 1014.1 1014.1 5.0
28/02:26am 13.8 6.9 12.9 94 0.5 NW 41 54 22 29 1014.1 1014.1 5.0
28/02:15am 14.3 8.6 13.0 92 0.7 NNW 35 56 19 30 1014.0 1014.0 4.8
28/02:00am 14.5 8.9 13.2 92 0.7 NNW 35 43 19 23 1013.8 1013.8 4.2
28/01:30am 14.3 10.7 13.2 93 0.6 N 24 30 13 16 1013.8 1013.8 4.2
28/01:00am 13.9 10.6 12.8 93 0.6 NW 22 26 12 14 1014.2 1014.2 4.2
28/12:30am 13.9 9.4 12.6 92 0.7 NW 28 35 15 19 1014.6 1014.6 3.2
28/12:00am 13.4 11.2 12.1 92 0.7 NW 15 22 8 12 1014.9 1014.9 2.8
 
Date/Time
EST
Temp
°C
App
Temp
°C
Dew
Point
Rel
Hum
%
Delta-T
°C
Wind Press
QNH
hPa
Press
MSL
hPa
Rain
since 9 am
mm
Dir
 
Spd
km/h
Gust
km/h
Spd
kts
Gust
kts
27/11:30pm 13.6 9.3 12.0 90 0.9 NW 26 33 14 18 1015.2 1015.2 1.0
27/11:00pm 14.4 9.6 13.0 91 0.8 NNW 30 35 16 19 1015.2 1015.2 1.0
27/10:30pm 14.0 7.3 12.4 90 0.9 NNW 39 46 21 25 1015.4 1015.4 1.0
27/10:00pm 14.7 9.8 12.7 88 1.1 NNW 30 37 16 20 1015.3 1015.3 0.4
27/09:30pm 14.7 10.6 12.7 88 1.1 NNW 26 30 14 16 1015.4 1015.4 0.4
27/09:00pm 14.6 10.9 12.6 88 1.1 NNW 24 26 13 14 1015.7 1015.7 0.4
27/08:30pm 14.6 10.1 12.5 87 1.1 NNW 28 32 15 17 1015.9 1015.9 0.4
27/08:00pm 14.5 10.3 12.4 87 1.1 NNW 26 32 14 17 1016.0 1016.0 0.4
27/07:30pm 14.5 9.9 12.4 87 1.1 NNW 28 33 15 18 1016.0 1016.0 0.4
27/07:00pm 14.5 9.1 12.2 86 1.2 NNW 32 37 17 20 1015.9 1015.9 0.4
27/06:30pm 14.4 9.4 12.1 86 1.2 NNW 30 39 16 21 1015.8 1015.8 0.4
27/06:00pm 14.5 10.2 12.2 86 1.2 NNW 26 30 14 16 1015.8 1015.8 0.4
27/05:30pm 14.5 9.8 12.0 85 1.4 NNW 28 32 15 17 1015.7 1015.7 0.4
27/05:00pm 14.5 9.7 11.8 84 1.5 NNW 28 33 15 18 1015.7 1015.7 0.4
27/04:30pm 14.5 9.3 11.5 82 1.6 NNW 30 35 16 19 1015.8 1015.8 0.4
27/04:00pm 14.7 9.1 11.5 81 1.7 NNW 32 39 17 21 1015.9 1015.9 0.4
27/03:30pm 14.7 9.2 11.7 82 1.6 NNW 32 39 17 21 1015.9 1015.9 0.4
27/03:00pm 14.5 8.7 11.6 83 1.6 NNW 33 39 18 21 1016.1 1016.1 0.4
27/02:30pm 14.4 8.7 11.7 84 1.4 NNW 33 39 18 21 1016.1 1016.1 0.4
27/02:00pm 14.6 10.0 12.3 86 1.2 N 28 35 15 19 1016.2 1016.2 0.4
27/01:30pm 14.4 9.4 12.3 87 1.1 N 30 35 16 19 1016.4 1016.4 0.4
27/01:00pm 14.1 8.6 12.0 87 1.1 NNW 32 39 17 21 1016.9 1016.9 0.4
27/12:30pm 14.3 8.6 11.8 85 1.3 NNW 33 41 18 22 1017.2 1017.2 0.4
27/12:00pm 14.4 8.7 11.7 84 1.4 N 33 41 18 22 1017.7 1017.7 0.4
27/11:30am 14.2 8.7 11.9 86 1.2 N 32 37 17 20 1018.2 1018.2 0.4
27/11:00am 13.8 8.3 11.7 87 1.1 N 32 35 17 19 1018.6 1018.6 0.2
27/10:30am 14.3 8.8 11.8 85 1.3 N 32 35 17 19 1018.9 1018.9 0.0
27/10:00am 14.5 8.3 11.5 82 1.6 N 35 39 19 21 1018.9 1018.9 0.0
27/09:30am 14.4 8.9 11.7 84 1.4 N 32 37 17 20 1019.2 1019.2 0.0
27/09:00am 14.3 8.5 11.5 83 1.5 N 33 39 18 21 1019.3 1019.3 0.2
27/08:30am 14.3 8.4 11.3 82 1.6 NNE 33 41 18 22 1019.4 1019.4 0.2
27/08:00am 14.4 8.6 11.4 82 1.6 NNE 33 37 18 20 1019.6 1019.6 0.2
27/07:30am 14.2 9.0 11.7 85 1.3 NNE 30 35 16 19 1019.5 1019.5 0.2
27/07:00am 13.9 8.6 11.4 85 1.3 NNE 30 35 16 19 1019.6 1019.6 0.2
27/06:30am 13.9 9.5 11.8 87 1.1 NNE 26 30 14 16 1019.7 1019.7 0.2
27/06:00am 13.7 9.8 12.1 90 0.9 NNE 24 28 13 15 1019.9 1019.9 0.2
27/05:30am 11.9 8.6 11.0 94 0.5 NE 19 24 10 13 1020.2 1020.2 0.2
27/05:00am 10.1 7.9 9.3 95 0.4 SE 11 17 6 9 1020.3 1020.3 0.2
27/04:30am 10.2 7.6 9.4 95 0.4 SE 13 17 7 9 1020.8 1020.8 0.2
27/04:00am 9.7 7.0 8.9 95 0.4 SE 13 17 7 9 1021.0 1021.0 0.2
27/03:30am 10.2 8.0 9.4 95 0.4 ESE 11 17 6 9 1021.4 1021.4 0.2
27/03:00am 10.1 7.9 9.3 95 0.4 E 11 15 6 8 1022.0 1022.0 0.2
27/02:30am 10.0 8.1 9.2 95 0.4 ESE 9 13 5 7 1022.3 1022.3 0.2
27/02:00am 10.0 7.8 9.2 95 0.4 ESE 11 15 6 8 1022.6 1022.6 0.2
27/01:30am 9.2 7.5 8.3 94 0.4 SSE 7 9 4 5 1022.7 1022.7 0.2
27/01:00am 9.2 7.1 8.3 94 0.4 SE 9 11 5 6 1022.8 1022.8 0.2
27/12:30am 9.0 6.9 8.1 94 0.4 SE 9 13 5 7 1023.0 1023.0 0.2
27/12:00am 10.1 8.2 9.0 93 0.5 ESE 9 11 5 6 1023.2 1023.2 0.2
 
Date/Time
EST
Temp
°C
App
Temp
°C
Dew
Point
Rel
Hum
%
Delta-T
°C
Wind Press
QNH
hPa
Press
MSL
hPa
Rain
since 9 am
mm
Dir
 
Spd
km/h
Gust
km/h
Spd
kts
Gust
kts
26/11:30pm 10.3 8.4 9.1 92 0.6 SSE 9 13 5 7 1023.6 1023.6 0.2
26/11:00pm 10.5 7.8 9.1 91 0.7 SE 13 15 7 8 1023.5 1023.5 0.2
26/10:30pm 10.5 7.8 8.9 90 0.8 ESE 13 17 7 9 1023.6 1023.6 0.2
26/10:00pm 10.6 7.5 8.9 89 0.8 E 15 19 8 10 1023.8 1023.8 0.2
26/09:30pm 11.7 10.4 9.8 88 1.0 S 7 11 4 6 1024.0 1024.0 0.2
26/09:00pm 13.3 11.3 11.4 88 1.0 WNW 13 15 7 8 1024.3 1024.3 0.2
26/08:30pm 13.4 11.0 11.5 88 1.0 WNW 15 17 8 9 1024.5 1024.5 0.2
26/08:00pm 13.3 11.7 11.4 88 1.0 WNW 11 13 6 7 1024.4 1024.4 0.2
26/07:30pm 13.4 11.3 11.3 87 1.1 WNW 13 15 7 8 1024.5 1024.5 0.2
26/07:00pm 13.6 11.6 11.5 87 1.1 W 13 13 7 7 1024.5 1024.5 0.2
26/06:30pm 13.6 11.6 11.5 87 1.1 W 13 15 7 8 1024.6 1024.6 0.2
26/06:00pm 13.6 11.9 11.3 86 1.2 WNW 11 13 6 7 1024.7 1024.7 0.2
26/05:30pm 13.8 11.4 11.5 86 1.2 WNW 15 17 8 9 1024.6 1024.6 0.2
26/05:00pm 13.8 11.0 11.3 85 1.3 WNW 17 20 9 11 1024.5 1024.5 0.2
26/04:30pm 14.1 10.9 11.4 84 1.4 WNW 19 24 10 13 1024.7 1024.7 0.2
26/04:00pm 14.6 11.3 11.6 82 1.6 WNW 20 24 11 13 1024.7 1024.7 0.2
26/03:30pm 15.1 11.9 11.9 81 1.7 WNW 20 24 11 13 1024.9 1024.9 0.2
26/03:00pm 15.2 12.0 12.0 81 1.7 WNW 20 24 11 13 1025.0 1025.0 0.2
26/02:30pm 15.3 12.8 12.2 82 1.7 WNW 17 20 9 11 1025.0 1025.0 0.2
26/02:00pm 14.4 12.4 11.6 83 1.5 W 13 15 7 8 1025.1 1025.1 0.2
26/01:30pm 14.5 12.6 11.8 84 1.5 W 13 15 7 8 1025.5 1025.5 0.2
26/01:00pm 14.3 12.4 11.8 85 1.3 W 13 17 7 9 1025.7 1025.7 0.2
26/12:30pm 13.9 11.2 11.6 86 1.2 W 17 20 9 11 1026.1 1026.1 0.2
26/12:00pm 13.8 11.1 11.8 88 1.1 W 17 20 9 11 1026.5 1026.5 0.2
26/11:30am 13.3 10.2 11.5 89 1.0 W 19 20 10 11 1026.8 1026.8 0.2
26/11:00am 12.9 9.1 11.1 89 0.9 W 22 26 12 14 1027.2 1027.2 0.2
26/10:30am 12.8 9.3 11.0 89 0.9 W 20 22 11 12 1027.4 1027.4 0.2
26/10:00am 12.7 9.5 11.1 90 0.8 W 19 22 10 12 1027.4 1027.4 0.2
26/09:30am 12.4 9.9 11.0 91 0.7 WSW 15 19 8 10 1027.4 1027.4 0.0
26/09:00am 12.0 10.5 10.7 92 0.7 WSW 9 13 5 7 1027.4 1027.4 0.0
26/08:30am 11.5 9.9 10.2 92 0.7 SSW 9 11 5 6 1027.6 1027.6 0.0
26/08:00am 11.7 9.4 10.4 92 0.7 SW 13 15 7 8 1027.6 1027.6 0.0
26/07:30am 11.9 8.9 10.5 91 0.7 W 17 19 9 10 1027.4 1027.4 0.0
26/07:00am 11.8 9.1 10.4 91 0.7 WSW 15 19 8 10 1027.1 1027.1 0.0
26/06:30am 11.9 8.5 10.5 91 0.7 W 19 20 10 11 1027.2 1027.2 0.0
26/06:00am 11.8 9.1 10.2 90 0.8 SW 15 19 8 10 1027.1 1027.1 0.0
26/05:30am 12.8 8.6 11.2 90 0.8 W 24 30 13 16 1027.1 1027.1 0.0
26/05:00am 12.4 10.3 11.0 91 0.7 WSW 13 17 7 9 1027.1 1027.1 0.0
26/04:30am 12.1 10.2 10.5 90 0.8 WSW 11 13 6 7 1027.1 1027.1 0.0
26/04:00am 12.0 10.5 10.4 90 0.8 WSW 9 13 5 7 1027.0 1027.0 0.0
26/03:30am 12.3 10.1 10.7 90 0.8 WSW 13 17 7 9 1027.1 1027.1 0.0
26/03:00am 12.5 10.0 10.9 90 0.8 WSW 15 20 8 11 1027.2 1027.2 0.0
26/02:30am 13.0 8.5 11.4 90 0.8 WNW 26 28 14 15 1027.4 1027.4 0.0
26/02:00am 13.0 8.9 11.4 90 0.8 W 24 28 13 15 1027.4 1027.4 0.0
26/01:30am 12.9 8.8 11.3 90 0.8 W 24 30 13 16 1027.4 1027.4 0.0
26/01:00am 12.7 9.5 11.1 90 0.8 W 19 24 10 13 1027.4 1027.4 0.0
26/12:30am 12.6 9.7 11.0 90 0.8 W 17 20 9 11 1027.7 1027.7 0.0
26/12:00am 12.0 9.7 10.4 90 0.8 WSW 13 20 7 11 1027.9 1027.9 0.0
 
Date/Time
EST
Temp
°C
App
Temp
°C
Dew
Point
Rel
Hum
%
Delta-T
°C
Wind Press
QNH
hPa
Press
MSL
hPa
Rain
since 9 am
mm
Dir
 
Spd
km/h
Gust
km/h
Spd
kts
Gust
kts
25/11:30pm 12.5 10.0 10.9 90 0.8 WSW 15 19 8 10 1028.0 1028.0 0.0
25/11:00pm 12.3 10.5 10.7 90 0.8 WSW 11 20 6 11 1028.1 1028.1 0.0
25/10:30pm 12.2 10.3 10.6 90 0.8 SW 11 15 6 8 1028.1 1028.1 0.0
25/10:00pm 12.2 10.7 10.6 90 0.8 WSW 9 15 5 8 1028.1 1028.1 0.0
25/09:30pm 12.2 10.3 10.6 90 0.8 W 11 17 6 9 1028.2 1028.2 0.0
25/09:00pm 11.2 10.0 9.6 90 0.8 SW 6 7 3 4 1028.0 1028.0 0.0
25/08:30pm 10.0 7.9 8.3 89 0.8 S 9 9 5 5 1027.9 1027.9 0.0
25/08:00pm 9.8 7.2 7.9 88 0.9 SSE 11 11 6 6 1028.0 1028.0 0.0
25/07:30pm 11.3 9.9 8.9 85 1.2 SW 6 13 3 7 1027.9 1027.9 0.0
25/07:00pm 10.6 8.5 8.2 85 1.2 ENE 9 11 5 6 1027.6 1027.6 0.0
25/06:30pm 10.3 8.4 7.5 83 1.3 ESE 7 11 4 6 1027.6 1027.6 0.0
25/06:00pm 10.6 8.7 7.5 81 1.5 E 7 9 4 5 1027.5 1027.5 0.0
25/05:30pm 11.2 10.7 7.7 79 1.7 CALM 0 0 0 0 1027.5 1027.5 0.0
25/05:00pm 11.0 10.3 7.1 77 1.8 CALM 0 0 0 0 1027.4 1027.4 0.0
25/04:30pm 11.8 11.2 7.5 75 2.1 CALM 0 0 0 0 1027.4 1027.4 0.0
25/04:00pm 11.7 11.1 7.2 74 2.1 CALM 0 0 0 0 1027.5 1027.5 0.0
25/03:30pm 12.6 11.3 7.5 71 2.5 NW 4 7 2 4 1027.5 1027.5 0.0
25/03:00pm 12.6 12.0 7.3 70 2.5 CALM 0 0 0 0 1027.4 1027.4 0.0
25/02:30pm 13.0 11.7 7.7 70 2.6 NW 4 7 2 4 1027.5 1027.5 0.0
25/02:00pm 12.3 11.8 7.8 74 2.2 CALM 0 4 0 2 1027.7 1027.7 0.0
25/01:30pm 11.2 9.2 6.9 75 2.0 S 7 9 4 5 1027.8 1027.8 0.0
25/01:00pm 10.5 8.0 6.6 77 1.8 SSE 9 11 5 6 1028.1 1028.1 0.0
25/12:30pm 10.3 7.4 6.5 77 1.8 S 11 15 6 8 1028.6 1028.6 0.0

Other Formats:

Comma delimited format used in spreadsheet applications
http://www.bom.gov.au/fwo/IDT60801/IDT60801.95964.axf

JavaScript Object Notation format (JSON) in row-major order
http://www.bom.gov.au/fwo/IDT60801/IDT60801.95964.json